Time,TemperatureF,DewpointF,PressureIn,WindDirection,WindDirectionDegrees,WindSpeedMPH,WindSpeedGustMPH,Humidity,HourlyPrecipIn,Conditions,Clouds,dailyrainin,SolarRadiationWatts/m^2,SoftwareType,DateUTC
2013-07-30 00:03:00,61.6,37.1,30.62,North,351,0.0,2.0,40,0.00,,,0.00,0.00,VWS V14.00,2013-07-30 06:03:00,
2013-07-30 00:08:00,61.0,35.9,30.64,North,351,0.0,2.0,39,0.00,,,0.00,0.00,VWS V14.00,2013-07-30 06:08:00,
2013-07-30 00:13:00,60.8,35.1,30.62,North,360,0.0,3.0,38,0.00,,,0.00,0.00,VWS V14.00,2013-07-30 06:13:00,
2013-07-30 00:18:00,60.5,38.5,30.62,North,360,0.0,3.0,44,0.00,,,0.00,0.00,VWS V14.00,2013-07-30 06:18:00,
2013-07-30 00:23:00,59.9,38.5,30.63,North,360,0.0,3.0,45,0.00,,,0.00,0.00,VWS V14.00,2013-07-30 06:23:00,
2013-07-30 00:28:00,59.6,38.8,30.63,North,360,0.0,0.0,46,0.00,,,0.00,0.00,VWS V14.00,2013-07-30 06:28:00,
2013-07-30 00:33:00,59.0,35.3,30.63,North,360,0.0,0.0,41,0.00,,,0.00,0.00,VWS V14.00,2013-07-30 06:33:00,
2013-07-30 00:38:00,59.0,36.0,30.64,North,360,0.0,1.0,42,0.00,,,0.00,0.00,VWS V14.00,2013-07-30 06:38:00,
2013-07-30 00:43:00,59.0,34.7,30.64,North,360,0.0,0.0,40,0.00,,,0.00,0.00,VWS V14.00,2013-07-30 06:43:00,
2013-07-30 00:48:00,59.0,33.5,30.64,North,360,0.0,0.0,38,0.00,,,0.00,0.00,VWS V14.00,2013-07-30 06:48:00,
2013-07-30 00:53:00,59.3,36.8,30.64,North,360,0.0,0.0,43,0.00,,,0.00,0.00,VWS V14.00,2013-07-30 06:53:00,
2013-07-30 00:58:00,59.3,35.6,30.64,North,360,0.0,0.0,41,0.00,,,0.00,0.00,VWS V14.00,2013-07-30 06:58:00,
2013-07-30 01:03:00,59.2,35.5,30.65,North,360,0.0,0.0,41,0.00,,,0.00,0.00,VWS V14.00,2013-07-30 07:03:00,
2013-07-30 01:08:00,59.1,38.9,30.65,North,360,0.0,0.0,47,0.00,,,0.00,0.00,VWS V14.00,2013-07-30 07:08:00,
2013-07-30 01:13:00,58.8,40.7,30.65,North,360,0.0,1.0,51,0.00,,,0.00,0.00,VWS V14.00,2013-07-30 07:13:00,
2013-07-30 01:18:00,58.0,40.5,30.66,North,360,0.0,1.0,52,0.00,,,0.00,0.00,VWS V14.00,2013-07-30 07:18:00,
2013-07-30 01:23:00,57.5,40.0,30.66,North,360,0.0,1.0,52,0.00,,,0.00,0.00,VWS V14.00,2013-07-30 07:23:00,
2013-07-30 01:28:00,57.1,35.4,30.66,North,360,0.0,1.0,44,0.00,,,0.00,0.00,VWS V14.00,2013-07-30 07:28:00,
2013-07-30 01:33:00,57.2,34.9,30.66,North,360,0.0,1.0,43,0.00,,,0.00,0.00,VWS V14.00,2013-07-30 07:33:00,
2013-07-30 01:38:00,57.2,37.2,30.66,North,360,2.0,2.0,47,0.00,,,0.00,0.00,VWS V14.00,2013-07-30 07:38:00,
2013-07-30 01:43:00,57.1,39.7,30.67,North,360,0.0,3.0,52,0.00,,,0.00,0.00,VWS V14.00,2013-07-30 07:43:00,
2013-07-30 01:48:00,56.9,36.3,30.67,North,360,0.0,3.0,46,0.00,,,0.00,0.00,VWS V14.00,2013-07-30 07:48:00,
2013-07-30 01:53:00,57.2,40.2,30.67,North,360,0.0,3.0,53,0.00,,,0.00,0.00,VWS V14.00,2013-07-30 07:53:00,
2013-07-30 01:58:00,57.1,38.7,30.67,North,360,0.0,0.0,50,0.00,,,0.00,0.00,VWS V14.00,2013-07-30 07:58:00,
2013-07-30 02:03:00,57.1,37.6,30.67,North,360,0.0,0.0,48,0.00,,,0.00,0.00,VWS V14.00,2013-07-30 08:03:00,
2013-07-30 02:08:00,57.0,35.3,30.67,North,360,0.0,0.0,44,0.00,,,0.00,0.00,VWS V14.00,2013-07-30 08:08:00,
2013-07-30 02:13:00,57.1,36.0,30.65,North,360,0.0,0.0,45,0.00,,,0.00,0.00,VWS V14.00,2013-07-30 08:13:00,
2013-07-30 02:18:00,57.3,34.4,30.65,North,360,0.0,0.0,42,0.00,,,0.00,0.00,VWS V14.00,2013-07-30 08:18:00,
2013-07-30 02:23:00,57.4,39.9,30.65,North,360,0.0,2.0,52,0.00,,,0.00,0.00,VWS V14.00,2013-07-30 08:23:00,
2013-07-30 02:28:00,57.1,39.2,30.66,North,360,0.0,0.0,51,0.00,,,0.00,0.00,VWS V14.00,2013-07-30 08:28:00,
2013-07-30 02:33:00,56.9,39.5,30.66,North,360,0.0,0.0,52,0.00,,,0.00,0.00,VWS V14.00,2013-07-30 08:33:00,
2013-07-30 02:38:00,56.6,37.2,30.66,North,360,0.0,0.0,48,0.00,,,0.00,0.00,VWS V14.00,2013-07-30 08:38:00,
2013-07-30 02:43:00,56.3,37.4,30.66,North,360,0.0,0.0,49,0.00,,,0.00,0.00,VWS V14.00,2013-07-30 08:43:00,
2013-07-30 02:48:00,56.2,37.3,30.66,North,360,0.0,0.0,49,0.00,,,0.00,0.00,VWS V14.00,2013-07-30 08:48:00,
2013-07-30 02:53:00,56.0,37.1,30.66,North,360,0.0,0.0,49,0.00,,,0.00,0.00,VWS V14.00,2013-07-30 08:53:00,
2013-07-30 02:58:00,55.7,38.8,30.66,North,360,0.0,0.0,53,0.00,,,0.00,0.00,VWS V14.00,2013-07-30 08:58:00,
2013-07-30 03:03:00,55.5,39.6,30.67,North,360,0.0,1.0,55,0.00,,,0.00,0.00,VWS V14.00,2013-07-30 09:03:00,
2013-07-30 03:08:00,54.8,36.5,30.67,North,360,0.0,3.0,50,0.00,,,0.00,0.00,VWS V14.00,2013-07-30 09:08:00,
2013-07-30 03:13:00,54.6,36.8,30.67,North,360,0.0,1.0,51,0.00,,,0.00,0.00,VWS V14.00,2013-07-30 09:13:00,
2013-07-30 03:18:00,54.4,38.6,30.67,North,360,0.0,1.0,55,0.00,,,0.00,0.00,VWS V14.00,2013-07-30 09:18:00,
2013-07-30 03:23:00,54.1,35.9,30.67,North,360,0.0,1.0,50,0.00,,,0.00,0.00,VWS V14.00,2013-07-30 09:23:00,
2013-07-30 03:28:00,54.0,38.7,30.67,North,360,0.0,1.0,56,0.00,,,0.00,0.00,VWS V14.00,2013-07-30 09:28:00,
2013-07-30 03:33:00,54.1,34.9,30.67,North,360,0.0,2.0,48,0.00,,,0.00,0.00,VWS V14.00,2013-07-30 09:33:00,
2013-07-30 03:38:00,54.3,38.0,30.67,North,360,0.0,2.0,54,0.00,,,0.00,0.00,VWS V14.00,2013-07-30 09:38:00,
2013-07-30 03:43:00,54.1,36.9,30.67,North,360,0.0,0.0,52,0.00,,,0.00,0.00,VWS V14.00,2013-07-30 09:43:00,
2013-07-30 03:48:00,53.9,36.2,30.68,North,360,0.0,0.0,51,0.00,,,0.00,0.00,VWS V14.00,2013-07-30 09:48:00,
2013-07-30 03:53:00,53.9,37.2,30.68,North,360,0.0,0.0,53,0.00,,,0.00,0.00,VWS V14.00,2013-07-30 09:53:00,
2013-07-30 03:58:00,53.9,34.2,30.69,North,360,0.0,1.0,47,0.00,,,0.00,0.00,VWS V14.00,2013-07-30 09:58:00,
2013-07-30 04:03:00,54.1,34.3,30.69,North,360,0.0,1.0,47,0.00,,,0.00,0.00,VWS V14.00,2013-07-30 10:03:00,
2013-07-30 04:08:00,54.2,37.5,30.69,North,360,0.0,3.0,53,0.00,,,0.00,0.00,VWS V14.00,2013-07-30 10:08:00,
2013-07-30 04:13:00,54.0,39.1,30.69,North,360,0.0,0.0,57,0.00,,,0.00,0.00,VWS V14.00,2013-07-30 10:13:00,
2013-07-30 04:18:00,53.7,38.8,30.70,North,360,0.0,0.0,57,0.00,,,0.00,0.00,VWS V14.00,2013-07-30 10:18:00,
2013-07-30 04:23:00,53.5,39.1,30.70,North,360,0.0,0.0,58,0.00,,,0.00,0.00,VWS V14.00,2013-07-30 10:23:00,
2013-07-30 04:28:00,53.4,37.7,30.70,North,360,0.0,0.0,55,0.00,,,0.00,0.00,VWS V14.00,2013-07-30 10:28:00,
2013-07-30 04:33:00,53.3,37.6,30.70,North,360,0.0,0.0,55,0.00,,,0.00,0.00,VWS V14.00,2013-07-30 10:33:00,
2013-07-30 04:38:00,53.3,39.8,30.70,North,360,0.0,0.0,60,0.00,,,0.00,0.00,VWS V14.00,2013-07-30 10:38:00,
2013-07-30 04:43:00,53.4,33.2,30.71,North,360,0.0,0.0,46,0.00,,,0.00,0.00,VWS V14.00,2013-07-30 10:43:00,
2013-07-30 04:48:00,53.7,35.5,30.72,North,360,1.0,2.0,50,0.00,,,0.00,0.00,VWS V14.00,2013-07-30 10:48:00,
2013-07-30 04:53:00,54.4,33.5,30.72,North,360,0.0,0.0,45,0.00,,,0.00,0.00,VWS V14.00,2013-07-30 10:53:00,
2013-07-30 04:58:00,55.1,39.2,30.71,North,9,0.0,1.0,55,0.00,,,0.00,0.00,VWS V14.00,2013-07-30 10:58:00,
2013-07-30 05:03:00,55.3,37.0,30.72,North,9,0.0,1.0,50,0.00,,,0.00,0.00,VWS V14.00,2013-07-30 11:03:00,
2013-07-30 05:08:00,55.6,37.3,30.72,NNW,346,0.0,4.0,50,0.00,,,0.00,0.00,VWS V14.00,2013-07-30 11:08:00,
2013-07-30 05:13:00,55.8,38.0,30.73,NE,37,0.0,3.0,51,0.00,,,0.00,0.00,VWS V14.00,2013-07-30 11:13:00,
2013-07-30 05:18:00,55.8,39.4,30.73,NE,37,0.0,3.0,54,0.00,,,0.00,0.00,VWS V14.00,2013-07-30 11:18:00,
2013-07-30 05:23:00,55.7,37.9,30.73,NE,37,0.0,0.0,51,0.00,,,0.00,0.00,VWS V14.00,2013-07-30 11:23:00,
2013-07-30 05:28:00,55.7,36.3,30.72,NE,37,0.0,0.0,48,0.00,,,0.00,0.00,VWS V14.00,2013-07-30 11:28:00,
2013-07-30 05:33:00,55.6,35.7,30.72,NE,37,0.0,0.0,47,0.00,,,0.00,0.00,VWS V14.00,2013-07-30 11:33:00,
2013-07-30 05:38:00,55.7,39.8,30.72,NNW,327,3.0,4.0,55,0.00,,,0.00,0.00,VWS V14.00,2013-07-30 11:38:00,
2013-07-30 05:43:00,55.3,39.9,30.72,NNW,334,1.0,10.0,56,0.00,,,0.00,0.00,VWS V14.00,2013-07-30 11:43:00,
2013-07-30 05:48:00,54.7,40.2,30.72,NNW,333,0.0,10.0,58,0.00,,,0.00,0.00,VWS V14.00,2013-07-30 11:48:00,
2013-07-30 05:53:00,54.4,40.4,30.74,NNW,329,0.0,10.0,59,0.00,,,0.00,0.00,VWS V14.00,2013-07-30 11:53:00,
2013-07-30 05:58:00,54.1,39.2,30.74,WNW,295,2.0,2.0,57,0.00,,,0.00,0.00,VWS V14.00,2013-07-30 11:58:00,
2013-07-30 06:03:00,53.9,40.3,30.74,WNW,294,0.0,2.0,60,0.00,,,0.00,0.00,VWS V14.00,2013-07-30 12:03:00,
2013-07-30 06:08:00,53.7,40.6,30.75,WNW,294,0.0,2.0,61,0.00,,,0.00,0.00,VWS V14.00,2013-07-30 12:08:00,
2013-07-30 06:13:00,53.7,41.8,30.75,WNW,295,0.0,1.0,64,0.00,,,0.00,0.00,VWS V14.00,2013-07-30 12:13:00,
2013-07-30 06:18:00,53.7,41.0,30.76,WNW,282,2.0,3.0,62,0.00,,,0.00,0.00,VWS V14.00,2013-07-30 12:18:00,
2013-07-30 06:23:00,53.6,40.9,30.76,West,277,0.0,3.0,62,0.00,,,0.00,0.00,VWS V14.00,2013-07-30 12:23:00,
2013-07-30 06:28:00,53.6,42.1,30.76,West,276,0.0,0.0,65,0.00,,,0.00,0.00,VWS V14.00,2013-07-30 12:28:00,
2013-07-30 06:33:00,53.6,41.7,30.76,West,276,0.0,0.0,64,0.00,,,0.00,5.00,VWS V14.00,2013-07-30 12:33:00,
2013-07-30 06:38:00,53.5,40.4,30.76,West,277,0.0,0.0,61,0.00,,,0.00,5.00,VWS V14.00,2013-07-30 12:38:00,
2013-07-30 06:43:00,53.5,40.8,30.76,West,277,0.0,0.0,62,0.00,,,0.00,11.00,VWS V14.00,2013-07-30 12:43:00,
2013-07-30 06:48:00,53.5,40.0,30.76,West,277,0.0,0.0,60,0.00,,,0.00,21.00,VWS V14.00,2013-07-30 12:48:00,
2013-07-30 06:53:00,53.7,40.6,30.76,West,268,0.0,0.0,61,0.00,,,0.00,32.00,VWS V14.00,2013-07-30 12:53:00,
2013-07-30 06:58:00,53.8,39.8,30.77,West,268,0.0,0.0,59,0.00,,,0.00,42.00,VWS V14.00,2013-07-30 12:58:00,
2013-07-30 07:03:00,54.0,40.0,30.77,WNW,292,2.0,4.0,59,0.00,,,0.00,46.00,VWS V14.00,2013-07-30 13:03:00,
2013-07-30 07:08:00,54.5,40.9,30.76,NNW,346,0.0,4.0,60,0.00,,,0.00,42.00,VWS V14.00,2013-07-30 13:08:00,
2013-07-30 07:13:00,54.6,41.4,30.78,North,360,0.0,7.0,61,0.00,,,0.00,37.00,VWS V14.00,2013-07-30 13:13:00,
2013-07-30 07:18:00,54.5,41.3,30.78,North,360,0.0,7.0,61,0.00,,,0.00,30.00,VWS V14.00,2013-07-30 13:18:00,
2013-07-30 07:23:00,54.5,41.3,30.77,North,360,1.0,7.0,61,0.00,,,0.00,33.00,VWS V14.00,2013-07-30 13:23:00,
2013-07-30 07:28:00,54.4,41.2,30.77,North,350,0.0,6.0,61,0.00,,,0.00,53.00,VWS V14.00,2013-07-30 13:28:00,
2013-07-30 07:33:00,54.3,41.2,30.77,North,360,5.0,6.0,61,0.00,,,0.00,60.00,VWS V14.00,2013-07-30 13:33:00,
2013-07-30 07:38:00,54.3,43.2,30.77,NNW,339,0.0,6.0,66,0.00,,,0.00,62.00,VWS V14.00,2013-07-30 13:38:00,
2013-07-30 07:43:00,54.1,42.2,30.77,NW,322,0.0,5.0,64,0.00,,,0.00,62.00,VWS V14.00,2013-07-30 13:43:00,
2013-07-30 07:48:00,54.1,42.6,30.78,NW,316,0.0,5.0,65,0.00,,,0.00,69.00,VWS V14.00,2013-07-30 13:48:00,
2013-07-30 07:53:00,54.0,42.9,30.78,NW,315,0.0,0.0,66,0.00,,,0.00,98.00,VWS V14.00,2013-07-30 13:53:00,
2013-07-30 07:58:00,54.1,42.6,30.78,NW,315,0.0,0.0,65,0.00,,,0.00,86.00,VWS V14.00,2013-07-30 13:58:00,
2013-07-30 08:03:00,54.2,41.9,30.78,NW,315,0.0,0.0,63,0.00,,,0.00,83.00,VWS V14.00,2013-07-30 14:03:00,
2013-07-30 08:08:00,54.4,41.7,30.80,NW,315,0.0,0.0,62,0.00,,,0.00,83.00,VWS V14.00,2013-07-30 14:08:00,
2013-07-30 08:13:00,54.5,41.3,30.79,NW,315,0.0,0.0,61,0.00,,,0.00,91.00,VWS V14.00,2013-07-30 14:13:00,
2013-07-30 08:18:00,54.9,42.6,30.79,SSE,167,2.0,4.0,63,0.00,,,0.00,125.00,VWS V14.00,2013-07-30 14:18:00,
2013-07-30 08:23:00,55.4,41.8,30.80,SSE,158,4.0,5.0,60,0.00,,,0.00,301.00,VWS V14.00,2013-07-30 14:23:00,
2013-07-30 08:28:00,56.0,42.8,30.80,SE,145,0.0,5.0,61,0.00,,,0.00,327.00,VWS V14.00,2013-07-30 14:28:00,
2013-07-30 08:33:00,56.6,42.0,30.80,SE,146,0.0,5.0,58,0.00,,,0.00,288.00,VWS V14.00,2013-07-30 14:33:00,
2013-07-30 08:38:00,57.1,40.2,30.80,SE,146,0.0,0.0,53,0.00,,,0.00,192.00,VWS V14.00,2013-07-30 14:38:00,
2013-07-30 08:43:00,57.6,40.1,30.80,SSE,147,0.0,3.0,52,0.00,,,0.00,353.00,VWS V14.00,2013-07-30 14:43:00,
2013-07-30 08:48:00,58.2,41.2,30.80,SSE,148,0.0,3.0,53,0.00,,,0.00,369.00,VWS V14.00,2013-07-30 14:48:00,
2013-07-30 08:53:00,59.0,40.4,30.79,SSE,148,0.0,0.0,50,0.00,,,0.00,357.00,VWS V14.00,2013-07-30 14:53:00,
2013-07-30 08:58:00,59.4,40.8,30.79,SSE,149,0.0,3.0,50,0.00,,,0.00,366.00,VWS V14.00,2013-07-30 14:58:00,
2013-07-30 09:03:00,59.9,40.7,30.79,SSE,149,0.0,3.0,49,0.00,,,0.00,390.00,VWS V14.00,2013-07-30 15:03:00,
2013-07-30 09:08:00,60.4,39.0,30.79,SSE,149,0.0,0.0,45,0.00,,,0.00,396.00,VWS V14.00,2013-07-30 15:08:00,
2013-07-30 09:13:00,60.9,39.4,30.79,SSE,149,0.0,2.0,45,0.00,,,0.00,406.00,VWS V14.00,2013-07-30 15:13:00,
2013-07-30 09:18:00,61.6,38.9,30.78,SSE,149,0.0,2.0,43,0.00,,,0.00,425.00,VWS V14.00,2013-07-30 15:18:00,
2013-07-30 09:23:00,62.3,38.9,30.78,SSE,149,0.0,0.0,42,0.00,,,0.00,443.00,VWS V14.00,2013-07-30 15:23:00,
2013-07-30 09:28:00,63.1,38.4,30.78,SSE,149,0.0,1.0,40,0.00,,,0.00,454.00,VWS V14.00,2013-07-30 15:28:00,
2013-07-30 09:33:00,63.9,40.4,30.76,South,171,1.0,3.0,42,0.00,,,0.00,469.00,VWS V14.00,2013-07-30 15:33:00,
2013-07-30 09:38:00,64.7,39.8,30.76,SSE,155,0.0,0.0,40,0.00,,,0.00,483.00,VWS V14.00,2013-07-30 15:38:00,
2013-07-30 09:43:00,65.3,40.4,30.76,WNW,284,0.0,1.0,40,0.00,,,0.00,494.00,VWS V14.00,2013-07-30 15:43:00,
2013-07-30 09:48:00,65.7,41.4,30.75,WNW,286,0.0,3.0,41,0.00,,,0.00,506.00,VWS V14.00,2013-07-30 15:48:00,
2013-07-30 09:53:00,66.1,41.1,30.75,WNW,286,0.0,4.0,40,0.00,,,0.00,520.00,VWS V14.00,2013-07-30 15:53:00,
2013-07-30 09:58:00,66.5,40.8,30.75,WNW,287,0.0,4.0,39,0.00,,,0.00,536.00,VWS V14.00,2013-07-30 15:58:00,
2013-07-30 10:03:00,67.0,40.6,30.75,WNW,303,0.0,4.0,38,0.00,,,0.00,575.00,VWS V14.00,2013-07-30 16:03:00,
2013-07-30 10:08:00,67.5,39.6,30.75,WNW,300,0.0,5.0,36,0.00,,,0.00,624.00,VWS V14.00,2013-07-30 16:08:00,
2013-07-30 10:13:00,67.9,41.4,30.78,WNW,300,0.0,0.0,38,0.00,,,0.00,413.00,VWS V14.00,2013-07-30 16:13:00,
2013-07-30 10:18:00,68.0,40.1,30.78,WNW,300,0.0,3.0,36,0.00,,,0.00,264.00,VWS V14.00,2013-07-30 16:18:00,
2013-07-30 10:23:00,68.3,42.4,30.78,WNW,300,0.0,0.0,39,0.00,,,0.00,295.00,VWS V14.00,2013-07-30 16:23:00,
2013-07-30 10:28:00,68.6,42.0,30.77,WNW,299,0.0,3.0,38,0.00,,,0.00,330.00,VWS V14.00,2013-07-30 16:28:00,
2013-07-30 10:33:00,68.9,41.6,30.77,WNW,300,0.0,3.0,37,0.00,,,0.00,392.00,VWS V14.00,2013-07-30 16:33:00,
2013-07-30 10:38:00,69.4,43.4,30.77,WNW,300,0.0,3.0,39,0.00,,,0.00,297.00,VWS V14.00,2013-07-30 16:38:00,
2013-07-30 10:43:00,69.6,43.6,30.76,WNW,299,0.0,0.0,39,0.00,,,0.00,390.00,VWS V14.00,2013-07-30 16:43:00,
2013-07-30 10:48:00,70.0,44.6,30.77,WNW,300,0.0,1.0,40,0.00,,,0.00,452.00,VWS V14.00,2013-07-30 16:48:00,
2013-07-30 10:53:00,70.1,43.3,30.76,North,360,3.0,6.0,38,0.00,,,0.00,406.00,VWS V14.00,2013-07-30 16:53:00,
2013-07-30 10:58:00,70.0,41.8,30.76,NNE,24,0.0,5.0,36,0.00,,,0.00,418.00,VWS V14.00,2013-07-30 16:58:00,
2013-07-30 11:03:00,69.9,42.5,30.77,North,9,5.0,5.0,37,0.00,,,0.00,304.00,VWS V14.00,2013-07-30 17:03:00,
2013-07-30 11:08:00,69.5,44.8,30.76,NNE,14,0.0,7.0,41,0.00,,,0.00,292.00,VWS V14.00,2013-07-30 17:08:00,
2013-07-30 11:13:00,69.4,44.1,30.79,NNE,22,0.0,5.0,40,0.00,,,0.00,313.00,VWS V14.00,2013-07-30 17:13:00,
2013-07-30 11:18:00,69.4,45.3,30.79,North,360,9.0,9.0,42,0.00,,,0.00,262.00,VWS V14.00,2013-07-30 17:18:00,
2013-07-30 11:23:00,69.9,45.2,30.80,North,11,7.0,8.0,41,0.00,,,0.00,835.00,VWS V14.00,2013-07-30 17:23:00,
2013-07-30 11:28:00,70.8,45.3,30.79,North,360,10.0,11.0,40,0.00,,,0.00,803.00,VWS V14.00,2013-07-30 17:28:00,
2013-07-30 11:33:00,71.6,43.3,30.79,North,355,9.0,11.0,36,0.00,,,0.00,823.00,VWS V14.00,2013-07-30 17:33:00,
2013-07-30 11:38:00,72.3,43.1,30.79,North,350,6.0,12.0,35,0.00,,,0.00,758.00,VWS V14.00,2013-07-30 17:38:00,
2013-07-30 11:43:00,73.1,46.0,30.78,NNE,13,4.0,12.0,38,0.00,,,0.00,698.00,VWS V14.00,2013-07-30 17:43:00,
2013-07-30 11:48:00,73.8,44.5,30.78,NNW,345,9.0,12.0,35,0.00,,,0.00,802.00,VWS V14.00,2013-07-30 17:48:00,
2013-07-30 11:53:00,74.4,43.5,30.78,North,360,7.0,12.0,33,0.00,,,0.00,837.00,VWS V14.00,2013-07-30 17:53:00,
2013-07-30 11:58:00,74.6,42.0,30.77,North,355,10.0,12.0,31,0.00,,,0.00,826.00,VWS V14.00,2013-07-30 17:58:00,
2013-07-30 12:03:00,75.1,44.1,30.77,NNW,336,9.0,12.0,33,0.00,,,0.00,828.00,VWS V14.00,2013-07-30 18:03:00,
2013-07-30 12:08:00,75.7,42.1,30.77,North,351,8.0,15.0,30,0.00,,,0.00,821.00,VWS V14.00,2013-07-30 18:08:00,
2013-07-30 12:13:00,76.2,43.4,30.78,North,355,5.0,12.0,31,0.00,,,0.00,791.00,VWS V14.00,2013-07-30 18:13:00,
2013-07-30 12:18:00,76.9,44.8,30.76,North,360,7.0,12.0,32,0.00,,,0.00,854.00,VWS V14.00,2013-07-30 18:18:00,
2013-07-30 12:23:00,77.2,46.7,30.76,NNE,28,5.0,12.0,34,0.00,,,0.00,861.00,VWS V14.00,2013-07-30 18:23:00,
2013-07-30 12:28:00,77.7,46.3,30.77,North,355,1.0,10.0,33,0.00,,,0.00,858.00,VWS V14.00,2013-07-30 18:28:00,
2013-07-30 12:33:00,78.0,43.2,30.76,NNW,333,2.0,10.0,29,0.00,,,0.00,868.00,VWS V14.00,2013-07-30 18:33:00,
2013-07-30 12:38:00,78.0,45.0,30.76,NW,325,5.0,10.0,31,0.00,,,0.00,877.00,VWS V14.00,2013-07-30 18:38:00,
2013-07-30 12:43:00,78.5,45.4,30.76,NNW,327,5.0,10.0,31,0.00,,,0.00,868.00,VWS V14.00,2013-07-30 18:43:00,
2013-07-30 12:48:00,78.6,43.7,30.75,NNW,336,3.0,10.0,29,0.00,,,0.00,889.00,VWS V14.00,2013-07-30 18:48:00,
2013-07-30 12:53:00,78.7,44.7,30.75,NNW,334,8.0,10.0,30,0.00,,,0.00,909.00,VWS V14.00,2013-07-30 18:53:00,
2013-07-30 12:58:00,78.2,46.0,30.76,NNW,346,6.0,9.0,32,0.00,,,0.00,907.00,VWS V14.00,2013-07-30 18:58:00,
2013-07-30 13:03:00,78.7,43.8,30.75,NW,326,3.0,9.0,29,0.00,,,0.00,918.00,VWS V14.00,2013-07-30 19:03:00,
2013-07-30 13:08:00,78.9,43.1,30.74,NNW,332,3.0,9.0,28,0.00,,,0.00,893.00,VWS V14.00,2013-07-30 19:08:00,
2013-07-30 13:13:00,78.9,42.1,30.75,NNW,327,0.0,7.0,27,0.00,,,0.00,995.00,VWS V14.00,2013-07-30 19:13:00,
2013-07-30 13:18:00,78.8,44.8,30.75,NW,323,4.0,7.0,30,0.00,,,0.00,954.00,VWS V14.00,2013-07-30 19:18:00,
2013-07-30 13:23:00,78.7,44.7,30.75,NNW,331,6.0,7.0,30,0.00,,,0.00,295.00,VWS V14.00,2013-07-30 19:23:00,
2013-07-30 13:28:00,78.1,44.2,30.76,NNW,333,6.0,10.0,30,0.00,,,0.00,984.00,VWS V14.00,2013-07-30 19:28:00,
2013-07-30 13:33:00,77.7,45.5,30.75,NNW,329,1.0,10.0,32,0.00,,,0.00,357.00,VWS V14.00,2013-07-30 19:33:00,
2013-07-30 13:38:00,78.0,42.3,30.76,North,350,6.0,6.0,28,0.00,,,0.00,285.00,VWS V14.00,2013-07-30 19:38:00,
2013-07-30 13:43:00,78.0,45.0,30.75,NNW,345,4.0,10.0,31,0.00,,,0.00,378.00,VWS V14.00,2013-07-30 19:43:00,
2013-07-30 13:48:00,78.7,46.4,30.75,NNW,327,10.0,10.0,32,0.00,,,0.00,960.00,VWS V14.00,2013-07-30 19:48:00,
2013-07-30 13:53:00,79.4,47.0,30.74,NW,322,10.0,10.0,32,0.00,,,0.00,285.00,VWS V14.00,2013-07-30 19:53:00,
2013-07-30 13:58:00,79.7,49.7,30.74,North,5,10.0,11.0,35,0.00,,,0.00,1027.00,VWS V14.00,2013-07-30 19:58:00,
2013-07-30 14:03:00,79.8,49.7,30.73,North,360,9.0,13.0,35,0.00,,,0.00,311.00,VWS V14.00,2013-07-30 20:03:00,
2013-07-30 14:08:00,79.4,50.2,30.73,North,350,11.0,13.0,36,0.00,,,0.00,991.00,VWS V14.00,2013-07-30 20:08:00,
2013-07-30 14:13:00,78.9,51.2,30.74,NNW,344,11.0,12.0,38,0.00,,,0.00,406.00,VWS V14.00,2013-07-30 20:13:00,
2013-07-30 14:18:00,78.4,48.5,30.75,NW,317,12.0,13.0,35,0.00,,,0.00,271.00,VWS V14.00,2013-07-30 20:18:00,
2013-07-30 14:23:00,78.4,49.3,30.75,North,355,9.0,10.0,36,0.00,,,0.00,795.00,VWS V14.00,2013-07-30 20:23:00,
2013-07-30 14:28:00,79.0,47.5,30.75,NW,313,12.0,16.0,33,0.00,,,0.00,874.00,VWS V14.00,2013-07-30 20:28:00,
2013-07-30 14:33:00,79.1,48.3,30.74,North,355,10.0,17.0,34,0.00,,,0.00,408.00,VWS V14.00,2013-07-30 20:33:00,
2013-07-30 14:38:00,79.2,48.4,30.74,NNW,346,11.0,13.0,34,0.00,,,0.00,733.00,VWS V14.00,2013-07-30 20:38:00,
2013-07-30 14:43:00,79.6,49.6,30.74,North,350,10.0,17.0,35,0.00,,,0.00,596.00,VWS V14.00,2013-07-30 20:43:00,
2013-07-30 14:48:00,79.9,49.0,30.73,North,360,13.0,17.0,34,0.00,,,0.00,721.00,VWS V14.00,2013-07-30 20:48:00,
2013-07-30 14:53:00,80.0,50.7,30.74,North,360,11.0,13.0,36,0.00,,,0.00,679.00,VWS V14.00,2013-07-30 20:53:00,
2013-07-30 14:58:00,80.0,47.5,30.73,NNE,17,15.0,17.0,32,0.00,,,0.00,606.00,VWS V14.00,2013-07-30 20:58:00,
2013-07-30 15:03:00,80.3,49.4,30.73,North,350,13.0,17.0,34,0.00,,,0.00,536.00,VWS V14.00,2013-07-30 21:03:00,
2013-07-30 15:08:00,80.6,48.9,30.73,North,355,7.0,9.0,33,0.00,,,0.00,638.00,VWS V14.00,2013-07-30 21:08:00,
2013-07-30 15:13:00,80.8,49.0,30.73,North,355,10.0,13.0,33,0.00,,,0.00,446.00,VWS V14.00,2013-07-30 21:13:00,
2013-07-30 15:18:00,80.7,49.0,30.73,NNW,340,9.0,14.0,33,0.00,,,0.00,404.00,VWS V14.00,2013-07-30 21:18:00,
2013-07-30 15:23:00,80.6,48.9,30.74,NNW,333,14.0,14.0,33,0.00,,,0.00,494.00,VWS V14.00,2013-07-30 21:23:00,
2013-07-30 15:28:00,80.6,48.9,30.73,NNW,330,10.0,16.0,33,0.00,,,0.00,527.00,VWS V14.00,2013-07-30 21:28:00,
2013-07-30 15:33:00,80.6,48.9,30.73,North,355,7.0,16.0,33,0.00,,,0.00,612.00,VWS V14.00,2013-07-30 21:33:00,
2013-07-30 15:38:00,80.9,49.1,30.73,North,355,10.0,11.0,33,0.00,,,0.00,531.00,VWS V14.00,2013-07-30 21:38:00,
2013-07-30 15:43:00,81.0,50.0,30.73,NNW,338,8.0,11.0,34,0.00,,,0.00,403.00,VWS V14.00,2013-07-30 21:43:00,
2013-07-30 15:48:00,80.8,52.1,30.73,North,5,8.0,11.0,37,0.00,,,0.00,401.00,VWS V14.00,2013-07-30 21:48:00,
2013-07-30 15:53:00,80.7,52.0,30.73,North,355,6.0,7.0,37,0.00,,,0.00,357.00,VWS V14.00,2013-07-30 21:53:00,
2013-07-30 15:58:00,80.5,50.4,30.73,North,350,5.0,9.0,35,0.00,,,0.00,371.00,VWS V14.00,2013-07-30 21:58:00,
2013-07-30 16:03:00,80.4,50.3,30.74,North,5,7.0,11.0,35,0.00,,,0.00,394.00,VWS V14.00,2013-07-30 22:03:00,
2013-07-30 16:08:00,80.2,50.8,30.73,North,355,3.0,5.0,36,0.00,,,0.00,446.00,VWS V14.00,2013-07-30 22:08:00,
2013-07-30 16:13:00,80.5,48.8,30.73,North,355,7.0,9.0,33,0.00,,,0.00,566.00,VWS V14.00,2013-07-30 22:13:00,
2013-07-30 16:18:00,81.1,50.1,30.73,NNW,345,6.0,11.0,34,0.00,,,0.00,497.00,VWS V14.00,2013-07-30 22:18:00,
2013-07-30 16:23:00,81.5,47.1,30.72,North,355,6.0,7.0,30,0.00,,,0.00,396.00,VWS V14.00,2013-07-30 22:23:00,
2013-07-30 16:28:00,81.5,48.8,30.72,North,355,3.0,7.0,32,0.00,,,0.00,380.00,VWS V14.00,2013-07-30 22:28:00,
2013-07-30 16:33:00,81.6,45.4,30.72,North,360,2.0,10.0,28,0.00,,,0.00,448.00,VWS V14.00,2013-07-30 22:33:00,
2013-07-30 16:38:00,81.9,47.5,30.71,North,355,5.0,6.0,30,0.00,,,0.00,425.00,VWS V14.00,2013-07-30 22:38:00,
2013-07-30 16:43:00,82.0,48.4,30.72,North,360,0.0,8.0,31,0.00,,,0.00,373.00,VWS V14.00,2013-07-30 22:43:00,
2013-07-30 16:48:00,82.0,47.5,30.72,North,355,2.0,8.0,30,0.00,,,0.00,302.00,VWS V14.00,2013-07-30 22:48:00,
2013-07-30 16:53:00,81.9,47.5,30.72,North,360,1.0,4.0,30,0.00,,,0.00,287.00,VWS V14.00,2013-07-30 22:53:00,
2013-07-30 16:58:00,81.6,48.9,30.72,North,360,4.0,6.0,32,0.00,,,0.00,283.00,VWS V14.00,2013-07-30 22:58:00,
2013-07-30 17:03:00,81.4,51.2,30.73,North,360,3.0,6.0,35,0.00,,,0.00,274.00,VWS V14.00,2013-07-30 23:03:00,
2013-07-30 17:08:00,81.3,52.6,30.73,North,360,0.0,5.0,37,0.00,,,0.00,278.00,VWS V14.00,2013-07-30 23:08:00,
2013-07-30 17:13:00,81.1,53.1,30.73,North,355,0.0,5.0,38,0.00,,,0.00,287.00,VWS V14.00,2013-07-30 23:13:00,
2013-07-30 17:18:00,80.9,53.7,30.73,North,355,0.0,5.0,39,0.00,,,0.00,302.00,VWS V14.00,2013-07-30 23:18:00,
2013-07-30 17:23:00,80.6,52.0,30.74,North,355,4.0,4.0,37,0.00,,,0.00,260.00,VWS V14.00,2013-07-30 23:23:00,
2013-07-30 17:28:00,80.5,53.3,30.74,North,355,0.0,4.0,39,0.00,,,0.00,234.00,VWS V14.00,2013-07-30 23:28:00,
2013-07-30 17:33:00,80.3,53.1,30.74,North,355,0.0,5.0,39,0.00,,,0.00,236.00,VWS V14.00,2013-07-30 23:33:00,
2013-07-30 17:38:00,80.1,53.6,30.74,North,355,0.0,0.0,40,0.00,,,0.00,255.00,VWS V14.00,2013-07-30 23:38:00,
2013-07-30 17:43:00,80.2,54.4,30.74,North,355,0.0,4.0,41,0.00,,,0.00,357.00,VWS V14.00,2013-07-30 23:43:00,
2013-07-30 17:48:00,80.3,53.8,30.74,North,355,2.0,5.0,40,0.00,,,0.00,279.00,VWS V14.00,2013-07-30 23:48:00,
2013-07-30 17:53:00,80.3,51.7,30.74,North,355,1.0,4.0,37,0.00,,,0.00,202.00,VWS V14.00,2013-07-30 23:53:00,
2013-07-30 17:58:00,80.3,53.8,30.74,North,355,0.0,4.0,40,0.00,,,0.00,244.00,VWS V14.00,2013-07-30 23:58:00,
2013-07-30 18:03:00,80.4,52.5,30.75,North,355,0.0,4.0,38,0.00,,,0.00,179.00,VWS V14.00,2013-07-31 00:03:00,
2013-07-30 18:08:00,80.4,51.8,30.75,North,355,0.0,0.0,37,0.00,,,0.00,185.00,VWS V14.00,2013-07-31 00:08:00,
2013-07-30 18:13:00,80.6,57.9,30.73,North,355,0.0,0.0,46,0.00,,,0.00,359.00,VWS V14.00,2013-07-31 00:13:00,
2013-07-30 18:18:00,80.9,48.3,30.74,North,355,3.0,3.0,32,0.00,,,0.00,251.00,VWS V14.00,2013-07-31 00:18:00,
2013-07-30 18:23:00,81.0,48.4,30.74,North,355,4.0,4.0,32,0.00,,,0.00,420.00,VWS V14.00,2013-07-31 00:23:00,
2013-07-30 18:28:00,81.3,48.7,30.74,North,355,0.0,4.0,32,0.00,,,0.00,360.00,VWS V14.00,2013-07-31 00:28:00,
2013-07-30 18:33:00,81.7,50.6,30.74,North,355,3.0,4.0,34,0.00,,,0.00,425.00,VWS V14.00,2013-07-31 00:33:00,
2013-07-30 18:38:00,82.1,47.6,30.74,North,355,4.0,4.0,30,0.00,,,0.00,399.00,VWS V14.00,2013-07-31 00:38:00,
2013-07-30 18:43:00,82.5,47.1,30.74,North,355,1.0,4.0,29,0.00,,,0.00,350.00,VWS V14.00,2013-07-31 00:43:00,
2013-07-30 18:48:00,82.9,51.7,30.74,North,355,0.0,4.0,34,0.00,,,0.00,329.00,VWS V14.00,2013-07-31 00:48:00,
2013-07-30 18:53:00,83.1,50.2,30.73,North,355,0.0,1.0,32,0.00,,,0.00,302.00,VWS V14.00,2013-07-31 00:53:00,
2013-07-30 18:58:00,83.1,51.9,30.73,North,355,0.0,1.0,34,0.00,,,0.00,281.00,VWS V14.00,2013-07-31 00:58:00,
2013-07-30 19:03:00,83.0,54.1,30.73,North,355,0.0,1.0,37,0.00,,,0.00,262.00,VWS V14.00,2013-07-31 01:03:00,
2013-07-30 19:08:00,82.9,50.9,30.74,North,355,0.0,0.0,33,0.00,,,0.00,220.00,VWS V14.00,2013-07-31 01:08:00,
2013-07-30 19:13:00,82.8,49.1,30.74,North,355,0.0,0.0,31,0.00,,,0.00,229.00,VWS V14.00,2013-07-31 01:13:00,
2013-07-30 19:18:00,82.7,49.0,30.74,North,355,0.0,1.0,31,0.00,,,0.00,225.00,VWS V14.00,2013-07-31 01:18:00,
2013-07-30 19:23:00,82.7,50.7,30.74,North,355,0.0,0.0,33,0.00,,,0.00,195.00,VWS V14.00,2013-07-31 01:23:00,
2013-07-30 19:28:00,82.5,48.8,30.74,North,355,0.0,0.0,31,0.00,,,0.00,146.00,VWS V14.00,2013-07-31 01:28:00,
2013-07-30 19:33:00,82.3,49.5,30.74,North,355,0.0,0.0,32,0.00,,,0.00,172.00,VWS V14.00,2013-07-31 01:33:00,
2013-07-30 19:38:00,82.2,50.3,30.74,North,355,0.0,0.0,33,0.00,,,0.00,167.00,VWS V14.00,2013-07-31 01:38:00,
2013-07-30 19:43:00,82.2,51.1,30.75,North,355,0.0,0.0,34,0.00,,,0.00,153.00,VWS V14.00,2013-07-31 01:43:00,
2013-07-30 19:48:00,82.3,48.7,30.75,North,355,0.0,0.0,31,0.00,,,0.00,139.00,VWS V14.00,2013-07-31 01:48:00,
2013-07-30 19:53:00,82.3,55.6,30.74,North,355,0.0,0.0,40,0.00,,,0.00,123.00,VWS V14.00,2013-07-31 01:53:00,
2013-07-30 19:58:00,82.3,50.3,30.74,North,355,0.0,0.0,33,0.00,,,0.00,84.00,VWS V14.00,2013-07-31 01:58:00,
2013-07-30 20:03:00,82.1,49.3,30.74,North,355,0.0,0.0,32,0.00,,,0.00,91.00,VWS V14.00,2013-07-31 02:03:00,
2013-07-30 20:08:00,81.5,48.0,30.76,North,355,0.0,0.0,31,0.00,,,0.00,46.00,VWS V14.00,2013-07-31 02:08:00,
2013-07-30 20:13:00,81.1,45.9,30.74,North,355,0.0,0.0,29,0.00,,,0.00,35.00,VWS V14.00,2013-07-31 02:13:00,
2013-07-30 20:18:00,80.3,47.8,30.73,North,355,0.0,2.0,32,0.00,,,0.00,33.00,VWS V14.00,2013-07-31 02:18:00,
2013-07-30 20:23:00,79.6,48.0,30.74,North,355,0.0,1.0,33,0.00,,,0.00,47.00,VWS V14.00,2013-07-31 02:23:00,
2013-07-30 20:28:00,78.8,48.9,30.74,North,355,0.0,1.0,35,0.00,,,0.00,44.00,VWS V14.00,2013-07-31 02:28:00,
2013-07-30 20:33:00,78.3,46.9,30.75,North,355,0.0,1.0,33,0.00,,,0.00,26.00,VWS V14.00,2013-07-31 02:33:00,
2013-07-30 20:38:00,77.8,47.2,30.75,North,355,0.0,0.0,34,0.00,,,0.00,23.00,VWS V14.00,2013-07-31 02:38:00,
2013-07-30 20:43:00,77.5,47.0,30.75,North,355,0.0,0.0,34,0.00,,,0.00,23.00,VWS V14.00,2013-07-31 02:43:00,
2013-07-30 20:48:00,77.2,45.9,30.76,North,355,0.0,1.0,33,0.00,,,0.00,14.00,VWS V14.00,2013-07-31 02:48:00,
2013-07-30 20:53:00,76.4,44.4,30.76,North,355,0.0,0.0,32,0.00,,,0.00,12.00,VWS V14.00,2013-07-31 02:53:00,
2013-07-30 20:58:00,75.7,44.6,30.76,North,355,0.0,1.0,33,0.00,,,0.00,9.00,VWS V14.00,2013-07-31 02:58:00,
2013-07-30 21:03:00,75.2,44.2,30.77,North,355,0.0,2.0,33,0.00,,,0.00,5.00,VWS V14.00,2013-07-31 03:03:00,
2013-07-30 21:08:00,74.9,43.9,30.77,North,355,0.0,0.0,33,0.00,,,0.00,0.00,VWS V14.00,2013-07-31 03:08:00,
2013-07-30 21:13:00,74.5,43.5,30.75,North,355,0.0,0.0,33,0.00,,,0.00,0.00,VWS V14.00,2013-07-31 03:13:00,
2013-07-30 21:18:00,74.1,44.0,30.74,North,355,0.0,0.0,34,0.00,,,0.00,0.00,VWS V14.00,2013-07-31 03:18:00,
2013-07-30 21:23:00,73.5,44.9,30.75,North,355,0.0,0.0,36,0.00,,,0.00,0.00,VWS V14.00,2013-07-31 03:23:00,
2013-07-30 21:28:00,72.9,45.8,30.76,North,355,0.0,0.0,38,0.00,,,0.00,0.00,VWS V14.00,2013-07-31 03:28:00,
2013-07-30 21:33:00,72.4,46.7,30.76,North,355,0.0,0.0,40,0.00,,,0.00,0.00,VWS V14.00,2013-07-31 03:33:00,
2013-07-30 21:38:00,71.7,46.1,30.76,North,355,0.0,0.0,40,0.00,,,0.00,0.00,VWS V14.00,2013-07-31 03:38:00,
2013-07-30 21:43:00,70.9,45.4,30.77,North,355,0.0,1.0,40,0.00,,,0.00,0.00,VWS V14.00,2013-07-31 03:43:00,
2013-07-30 21:48:00,70.2,48.5,30.78,North,355,0.0,1.0,46,0.00,,,0.00,0.00,VWS V14.00,2013-07-31 03:48:00,
2013-07-30 21:53:00,69.7,48.6,30.78,North,355,0.0,0.0,47,0.00,,,0.00,0.00,VWS V14.00,2013-07-31 03:53:00,
2013-07-30 21:58:00,68.5,49.2,30.79,North,355,0.0,1.0,50,0.00,,,0.00,0.00,VWS V14.00,2013-07-31 03:58:00,
2013-07-30 22:01:00,68.0,49.2,30.79,North,355,0.0,1.0,51,0.00,,,0.00,0.00,VWS V14.00,2013-07-31 04:01:00,
2013-07-30 22:02:00,67.7,47.9,30.79,North,355,0.0,1.0,49,0.00,,,0.00,0.00,VWS V14.00,2013-07-31 04:02:00,
2013-07-30 22:07:00,67.0,47.2,30.80,North,355,0.0,1.0,49,0.00,,,0.00,0.00,VWS V14.00,2013-07-31 04:07:00,
2013-07-30 22:12:00,66.5,46.8,30.80,North,355,0.0,0.0,49,0.00,,,0.00,0.00,VWS V14.00,2013-07-31 04:12:00,
2013-07-30 22:17:00,66.2,45.4,30.80,North,355,0.0,0.0,47,0.00,,,0.00,0.00,VWS V14.00,2013-07-31 04:17:00,
2013-07-30 22:22:00,65.9,46.2,30.80,North,355,0.0,0.0,49,0.00,,,0.00,0.00,VWS V14.00,2013-07-31 04:22:00,
2013-07-30 22:27:00,65.8,45.6,30.80,North,355,0.0,4.0,48,0.00,,,0.00,0.00,VWS V14.00,2013-07-31 04:27:00,
2013-07-30 22:32:00,65.9,45.7,30.80,North,355,0.0,4.0,48,0.00,,,0.00,0.00,VWS V14.00,2013-07-31 04:32:00,
2013-07-30 22:37:00,66.1,45.3,30.80,North,355,0.0,4.0,47,0.00,,,0.00,0.00,VWS V14.00,2013-07-31 04:37:00,
2013-07-30 22:42:00,66.5,45.7,30.80,North,355,0.0,4.0,47,0.00,,,0.00,0.00,VWS V14.00,2013-07-31 04:42:00,
2013-07-30 22:47:00,66.3,48.2,30.81,North,355,0.0,4.0,52,0.00,,,0.00,0.00,VWS V14.00,2013-07-31 04:47:00,
2013-07-30 22:52:00,65.2,47.2,30.82,North,355,0.0,4.0,52,0.00,,,0.00,0.00,VWS V14.00,2013-07-31 04:52:00,
2013-07-30 22:57:00,64.4,44.8,30.82,North,355,0.0,0.0,49,0.00,,,0.00,0.00,VWS V14.00,2013-07-31 04:57:00,
2013-07-30 23:02:00,64.1,46.1,30.83,North,355,0.0,1.0,52,0.00,,,0.00,0.00,VWS V14.00,2013-07-31 05:02:00,
2013-07-30 23:07:00,63.9,46.5,30.83,North,355,0.0,1.0,53,0.00,,,0.00,0.00,VWS V14.00,2013-07-31 05:07:00,
2013-07-30 23:12:00,63.5,46.1,30.80,North,355,0.0,0.0,53,0.00,,,0.00,0.00,VWS V14.00,2013-07-31 05:12:00,
2013-07-30 23:17:00,63.4,46.0,30.81,North,355,0.0,0.0,53,0.00,,,0.00,0.00,VWS V14.00,2013-07-31 05:17:00,
2013-07-30 23:22:00,63.3,47.3,30.81,North,355,0.0,0.0,56,0.00,,,0.00,0.00,VWS V14.00,2013-07-31 05:22:00,
2013-07-30 23:27:00,63.2,48.2,30.81,North,355,0.0,0.0,58,0.00,,,0.00,0.00,VWS V14.00,2013-07-31 05:27:00,
2013-07-30 23:32:00,63.0,46.6,30.81,North,355,0.0,0.0,55,0.00,,,0.00,0.00,VWS V14.00,2013-07-31 05:32:00,
2013-07-30 23:37:00,62.9,48.4,30.81,North,355,0.0,0.0,59,0.00,,,0.00,0.00,VWS V14.00,2013-07-31 05:37:00,
2013-07-30 23:42:00,62.6,46.7,30.82,North,355,0.0,1.0,56,0.00,,,0.00,0.00,VWS V14.00,2013-07-31 05:42:00,
2013-07-30 23:47:00,62.4,47.5,30.82,North,355,0.0,1.0,58,0.00,,,0.00,0.00,VWS V14.00,2013-07-31 05:47:00,
2013-07-30 23:52:00,62.0,46.1,30.82,North,355,0.0,1.0,56,0.00,,,0.00,0.00,VWS V14.00,2013-07-31 05:52:00,
2013-07-30 23:57:00,61.8,44.0,30.82,North,355,0.0,0.0,52,0.00,,,0.00,0.00,VWS V14.00,2013-07-31 05:57:00,